Find Starlink 4024

NORAD ID: 52599 Int'l Des: 2022-052 Owner: SPXS Country: US Constellation: starlink operational
LEOCIRCULAR

当前视图

正在加载3D地球...

About Starlink 4024

Starlink 4024 (NORAD 52599) is a starlink constellation satellite (v1.5) launched May 14, 2022 by SPXS of US. It operates in LEO, CIRCULAR orbit with a mass of 297.00 kg.

即将过境

Passes for default location (London). Set your location on the main map for personalized predictions.

高度历史

Loading altitude history...

两行轨道根数

1 52599U 22052B 26263.30101749 .00000328 00000-0 22335-4 0 9997
2 52599 53.1586 110.2702 0001225 94.8755 265.2386 15.31697052241245
Epoch: Sep 20, 2026 • Age: 16 hours

当前状态

高度 470.6 km
远地点 / 近地点 N/A
速度 7.63 km/s
星下点 9.86°N, 74.42°W
发射日期 May 14, 2022
运行时间 4.3 years
类型 internet

技术详情

分类 Payload
质量 297.00 kg
干质量 275.00 kg
长度 0.20 m
跨度 9.00 m
形状 ? Box + pan
制造商 SPXS
平台类型 Starlink
阶段状态 In Orbit
所有者/国家 SPXS/US

Most Searched